Regional Weather Roundup
Issued by NWS Bismarck, ND

Home | Current Version | Previous Version | Text Only | Print | Product List | Glossary On
Versions: 1 2 3 4 5 6 7 8 9 10 11 12 13 14 15 16 17 18 19 20 21 22 23 24 25 26 27 28 29 30 31 32 33 34 35 36 37 38 39 40 41 42 43 44 45 46 47 48 49 50
000
ASUS43 KBIS 310410
RWRBIS

NWR BROADCAST TEXT
NATIONAL WEATHER SERVICE BISMARCK ND
1000 PM CST FRI JAN 30 2015

NOTE: "FAIR" INDICATES FEW OR NO CLOUDS BELOW 12,000 FEET WITH NO
SIGNIFICANT WEATHER AND/OR OBSTRUCTIONS TO VISIBILITY.


CITY           SKY/WX    TMP DP  RH WIND       PRES   REMARKS
WILLISTON      CLOUDY    26  22  84 NE13      30.20S WCI  15
MINOT          CLOUDY    24  20  84 N10       30.21R WCI  14
MINOT AFB      CLOUDY    24  24  99 N12       30.22R WCI  13
BISMARCK       CLEAR     25  24  96 CALM      30.19F
DICKINSON      CLEAR     25  21  85 NW3       30.12F
GARRISON         N/A     24  22  91 NE12      30.19S WCI  13
HETTINGER ARPT PTCLDY    25  21  85 CALM      30.14F
JAMESTOWN      CLOUDY    26  23  88 N15       30.17S WCI  14
BEACH          FAIR      25  25 100 CALM      30.14F
CARRINGTON     CLOUDY    25  25 100 MISG      30.20R
CROSBY         CLOUDY    23  23 100 N8        30.23F WCI  14
HARVEY         CLOUDY    23  23 100 N9        30.20S WCI  13
HAZEN          MOCLDY    27  25  93 NE6       30.20S WCI  20
LINTON         FAIR      28  28 100 NE7       30.16F
MANDAN         FAIR      25  23  93 N6        30.18S WCI  18
OAKES            N/A     28  28 100 N14G23    30.16S WCI  17
RUGBY          CLOUDY    23  21  93 N12       30.21R WCI  12
TIOGA          CLOUDY    21  21 100 N10       30.23R FOG     WCI  10
WATFORD CITY   FAIR      25  25 100 NE6       30.16F WCI  18
$$

CITY           SKY/WX    TMP DP  RH WIND       PRES   REMARKS
GRAND FORKS    CLOUDY    24  17  74 N18       30.19R WCI  10
GRAND FORKS AF CLOUDY    23  17  77 N16       30.20R WCI  10
DEVILS LAKE    CLOUDY    21  16  79 N15       30.20R WCI   8
FARGO          MOCLDY    27  22  81 NW10      30.16R WCI  17
CANDO          CLOUDY    21  18  86 N12G17    30.22R WCI   9
CAVALIER       CLOUDY    18  14  86 N15       30.23R WCI   3
GWINNER        CLEAR     30  30 100 N16       30.16S WCI  19
ROLLA          CLOUDY    18  18 100 NE13G18   30.21R WCI   4
WALHALLA         N/A     16  16 100 N14       30.25R WCI   1
$$

CITY           SKY/WX    TMP DP  RH WIND       PRES   REMARKS
ABERDEEN       CLEAR     28  24  85 N8        30.15F WCI  20
MOBRIDGE       CLEAR     26  22  84 N6        30.12S WCI  19
BUFFALO          N/A     30  23  75 E5        30.07F
RAPID CITY     CLOUDY    29  22  75 N9        30.12F
GLASGOW        CLEAR     31  27  85 E12       30.10F
SIDNEY         CLEAR     28  25  86 N5        30.19F
WOLF POINT     CLEAR     30  26  85 E10       30.16F
GLENDIVE       CLEAR     28  25  86 NE6       30.14F
MILES CITY     CLEAR     31  25  78 S6        30.11F
BAKER          CLEAR     26  23  88 CALM      30.13F
$$

CITY           SKY/WX    TMP DP  RH WIND       PRES   REMARKS
BILLINGS       PTCLDY    37  24  59 SW13      30.08F
GREAT FALLS    CLEAR     32  19  58 SW9       30.01F
REGINA         FLURRIES  16  12  86 NE13      30.26R WCI   2
ESTEVAN        FLURRIES  21  18  86 N7G20     30.23R WCI  13
$$




USA.gov is the U.S. government's official web portal to all federal, state and local government web resources and services.